Waynesville-St. Robert Regional Forney field Fort Leonard Wood US
ICAO: KTBN
IATA: TBN
Category: Medium
Scheduled Services: Yes

Elevation: 1159 ft
TransAlt. 18000 ft.

Airport Communications:
ATIS:118.7
KANSAS CITY CNTR:133.8
CTAF:125.4
FORNEY TWR:125.4

KTBN Zoom In..

If you have problems with the map follow the link
https://www.worldairports.se/pages/airport.php?
ICAO=KTBN

Runways:

(A) RW 14 length 6038 ft width 150 ft
ILS 110.90 / hdg 144

(B) RW 32 length 6038 ft width 150 ft
---- / hdg 324

Location; KTBN
Day. 16 / Time. 10.56 Zulu
* Altimeter: 30.06
* Temperature: 04° c. 39.2°f.
* Wind from: KTB° Speed N kn.
Dewpoint: -02° c.
Visibility: 10 Statute Miles.
Clouds: Clear (automated report).

KTBN 161056Z AUTO 29005KT 10SM CLR 04/M02 A3006 RMK AO2 SLP188 T00391021


Wind From KTB°
Speed N kn.

 
 
jpsmedia.com for Web Design worldairports.se 2018   terms of use